Dominia — ICFW — position and weather

sailwx.info

Track history (hours):
 
Tides and Currents Weather Stations Pressure Air Temp Water Temp Dewpoint Dewpoint Depression Visibility Wind Speed Wind Dir Waves Ship Positions

Dominia

Last reported at 2014-Oct-24 06:32 UTC. Time now 2014-Oct-24 07:10 UTC.
Position N 44°25' E 008°50'.

Length 176 m; draft 7.5 m.

Type: Ship (hazmat cat A). MMSI: 247273400.

Date/timePositionNaut miles runAvg speedWind from/ knotsBaromVisibWave heightAir tempDewpointWater temp
2014-Oct-24 06:32N 44°25' E 008°50'4 4.3
2014-Oct-24 05:33N 44°22' E 008°47'8 8.5
2014-Oct-24 04:33N 44°14' E 008°50'1 0.6
2014-Oct-24 03:31N 44°13' E 008°50'1 1.0
2014-Oct-24 02:31N 44°14' E 008°50'1 1.1
2014-Oct-24 01:31N 44°15' E 008°49'1 1.1
2014-Oct-24 00:31N 44°16' E 008°49'1 0.7
2014-Oct-23 23:31N 44°17' E 008°49'1 0.7
2014-Oct-23 22:31N 44°18' E 008°49'0 0.4
2014-Oct-23 21:31N 44°18' E 008°48'3 3.3
2014-Oct-23 20:33N 44°15' E 008°47'7 7.2
2014-Oct-23 19:33N 44°08' E 008°44'0 0.2
2014-Oct-23 18:32N 44°08' E 008°44'1 0.8
2014-Oct-23 17:32N 44°09' E 008°45'1 0.7
2014-Oct-23 16:32N 44°09' E 008°45'1 0.7
2014-Oct-23 15:29N 44°10' E 008°46'1 0.7
2014-Oct-23 14:32N 44°11' E 008°46'1 0.9
2014-Oct-23 13:32N 44°12' E 008°46'1 1.0
2014-Oct-23 12:32N 44°13' E 008°45'1 1.1
2014-Oct-23 11:32N 44°14' E 008°45'1 0.9
2014-Oct-23 10:29N 44°15' E 008°45'1 0.9
2014-Oct-23 09:29N 44°15' E 008°44'1 0.8
2014-Oct-23 08:32N 44°16' E 008°44'5 5.0
2014-Oct-23 07:33N 44°15' E 008°51'7 7.5
2014-Oct-23 06:34N 44°12' E 009°00'1 1.1
2014-Oct-23 05:31N 44°11' E 009°01'1 1.3
2014-Oct-23 04:31N 44°11' E 008°59'1 1.3
2014-Oct-23 03:31N 44°11' E 008°57'1 1.2
2014-Oct-23 02:28N 44°11' E 008°56'1 0.9
2014-Oct-23 01:31N 44°12' E 008°55'1 0.8
2014-Oct-23 00:31N 44°12' E 008°54'1 0.7
2014-Oct-22 23:28N 44°12' E 008°53'1 0.8
2014-Oct-22 22:31N 44°13' E 008°52'1 1.0
2014-Oct-22 21:31N 44°14' E 008°52'1 0.9
2014-Oct-22 20:31N 44°14' E 008°51'1 1.2
2014-Oct-22 19:31N 44°15' E 008°50'1 0.9
2014-Oct-22 18:33N 44°16' E 008°49'6 6.2
2014-Oct-22 17:33N 44°10' E 008°46'6 6.3
2014-Oct-22 16:33N 44°05' E 008°41'1 1.2
2014-Oct-22 15:31N 44°05' E 008°40'2 1.9
2014-Oct-22 14:31N 44°07' E 008°40'2 2.0
2014-Oct-22 13:31N 44°08' E 008°41'2 1.8
2014-Oct-22 12:19N 44°11' E 008°42'1 1.6
2014-Oct-22 11:31N 44°12' E 008°42'1 1.3
2014-Oct-22 10:31N 44°13' E 008°43'2 1.5
2014-Oct-22 09:31N 44°14' E 008°44'2 1.6
2014-Oct-22 08:34N 44°16' E 008°45'6 5.7
2014-Oct-22 07:33N 44°10' E 008°49'8 7.9
2014-Oct-22 06:33N 44°09' E 008°59'4 3.7
2014-Oct-22 05:32N 44°08' E 009°04'2 1.8
2014-Oct-22 04:32N 44°08' E 009°02'2 1.9
2014-Oct-22 03:29N 44°09' E 008°59'2 2.3
2014-Oct-22 02:32N 44°10' E 008°57'2 1.8
2014-Oct-22 01:32N 44°12' E 008°55'1 1.0
2014-Oct-22 00:32N 44°12' E 008°54'1 0.5
2014-Oct-21 23:32N 44°12' E 008°53'0 0.2
2014-Oct-21 22:32N 44°12' E 008°53'5 4.7
2014-Oct-21 21:33N 44°14' E 008°47'2 1.7
2014-Oct-21 20:28N 44°15' E 008°45'1 0.8
2014-Oct-21 19:31N 44°15' E 008°46'1 0.9
2014-Oct-21 18:28N 44°14' E 008°47'1 0.8
2014-Oct-21 17:31N 44°13' E 008°47'1 0.8
2014-Oct-21 16:31N 44°12' E 008°48'1 0.8
2014-Oct-21 15:31N 44°12' E 008°48'1 0.8
2014-Oct-21 14:33N 44°11' E 008°47'7 7.0
2014-Oct-21 13:33N 44°12' E 008°38'2 1.1
2014-Oct-21 11:32N 44°12' E 008°41'1 1.0
2014-Oct-21 10:32N 44°12' E 008°42'1 0.9
2014-Oct-21 09:20N 44°12' E 008°44'1 0.8
2014-Oct-21 08:32N 44°12' E 008°44'1 0.8
2014-Oct-21 07:26N 44°11' E 008°45'3 3.6
2014-Oct-21 06:33N 44°14' E 008°48'10 9.8
2014-Oct-21 05:33N 44°23' E 008°51'0 0.1
2014-Oct-21 04:30N 44°23' E 008°51'0 0.0
2014-Oct-21 03:33N 44°23' E 008°51'0 0.0
2014-Oct-21 02:33N 44°23' E 008°51'0 0.0
2014-Oct-21 01:33N 44°23' E 008°51'0 0.0
2014-Oct-21 00:33N 44°23' E 008°51'0 0.0
2014-Oct-20 23:33N 44°24' E 008°51'0 0.1
2014-Oct-20 22:33N 44°24' E 008°51'0 0.0
2014-Oct-20 21:30N 44°23' E 008°51'0 0.1
2014-Oct-20 20:33N 44°23' E 008°51'0 0.1
2014-Oct-20 19:33N 44°23' E 008°51'0 0.0
2014-Oct-20 18:33N 44°23' E 008°51'0 0.0
2014-Oct-20 17:33N 44°23' E 008°51'0 0.0
2014-Oct-20 16:33N 44°23' E 008°51'0 0.0
2014-Oct-20 15:33N 44°24' E 008°51'0 0.0
2014-Oct-20 14:33N 44°23' E 008°51'0 0.0
2014-Oct-20 13:33N 44°23' E 008°51'0 0.0
2014-Oct-20 12:33N 44°23' E 008°51'0 0.0
2014-Oct-20 11:33N 44°23' E 008°51'0 0.0
2014-Oct-20 10:33N 44°23' E 008°51'0 0.1
2014-Oct-20 09:33N 44°23' E 008°51'0 0.1
2014-Oct-20 08:33N 44°23' E 008°51'0 0.0
2014-Oct-20 07:30N 44°23' E 008°51'0 0.0
2014-Oct-20 06:33N 44°23' E 008°51'0 0.0
2014-Oct-20 05:33N 44°23' E 008°51'0 0.0
2014-Oct-20 04:33N 44°23' E 008°51'0 0.0
2014-Oct-20 03:33N 44°23' E 008°51'0 0.0
2014-Oct-20 02:33N 44°23' E 008°51'0 0.0
2014-Oct-20 01:33N 44°23' E 008°51'0 0.0
2014-Oct-20 00:33N 44°23' E 008°51'0 0.0
2014-Oct-19 23:33N 44°23' E 008°51'0 0.0
2014-Oct-19 22:33N 44°23' E 008°51'0 0.0
2014-Oct-19 21:33N 44°23' E 008°51'0 0.0
2014-Oct-19 20:33N 44°23' E 008°51'0 0.0
2014-Oct-19 19:33N 44°23' E 008°51'0 0.0
2014-Oct-19 18:24N 44°23' E 008°51'0 0.1
2014-Oct-19 17:33N 44°23' E 008°51'0 0.0
2014-Oct-19 16:30N 44°23' E 008°51'0 0.0
2014-Oct-19 15:33N 44°23' E 008°51'0 0.0
2014-Oct-19 14:30N 44°23' E 008°51'0 0.0
2014-Oct-19 13:27N 44°23' E 008°51'0 0.0
2014-Oct-19 12:33N 44°23' E 008°51'0 0.0
2014-Oct-19 11:30N 44°23' E 008°51'0 0.1
2014-Oct-19 10:27N 44°23' E 008°51'0 0.1
2014-Oct-19 09:33N 44°23' E 008°51'0 0.1
2014-Oct-19 08:33N 44°23' E 008°51'0 0.0
2014-Oct-19 07:33N 44°23' E 008°51'0 0.1
2014-Oct-19 06:33N 44°23' E 008°51'4 4.4
2014-Oct-19 05:33N 44°19' E 008°52'1010.1
2014-Oct-19 04:33N 44°09' E 008°56'0 0.1
2014-Oct-19 03:33N 44°09' E 008°56'0 0.2
2014-Oct-19 02:33N 44°09' E 008°56'0 0.2
2014-Oct-19 01:33N 44°09' E 008°57'0 0.1
2014-Oct-19 00:33N 44°09' E 008°57'0 0.1
2014-Oct-18 23:33N 44°09' E 008°57'0 0.2
2014-Oct-18 22:33N 44°09' E 008°57'0 0.2
2014-Oct-18 21:33N 44°09' E 008°56'0 0.3
2014-Oct-18 20:30N 44°09' E 008°56'0 0.4
2014-Oct-18 19:33N 44°09' E 008°56'0 0.3
2014-Oct-18 18:30N 44°08' E 008°56'2 2.1
2014-Oct-18 17:33N 44°10' E 008°54'10 9.9
2014-Oct-18 16:33N 44°19' E 008°50'1010.4
2014-Oct-18 15:33N 44°11' E 008°41'1312.7
2014-Oct-18 14:33N 44°01' E 008°30'1312.6
2014-Oct-18 13:33N 43°51' E 008°19'1312.3
2014-Oct-18 12:30N 43°42' E 008°06'1212.3
2014-Oct-18 11:32N 43°35' E 007°53'2912.6
2014-Oct-18 09:14N 43°17' E 007°21'912.5
2014-Oct-18 08:33N 43°12' E 007°12'1212.4
2014-Oct-18 07:33N 43°04' E 006°59'1212.3
2014-Oct-18 06:33N 42°57' E 006°45'1211.9
2014-Oct-18 05:33N 42°50' E 006°32'1411.9
2014-Oct-18 04:24N 42°48' E 006°13'1311.3
2014-Oct-18 03:13N 42°51' E 005°56'912.0
2014-Oct-18 02:31N 42°55' E 005°45'1512.6
2014-Oct-18 01:20N 43°01' E 005°27'1212.7
2014-Oct-18 00:23N 43°06' E 005°12'1011.8
2014-Oct-17 23:33N 43°12' E 005°01'1212.0
2014-Oct-17 22:33N 43°23' E 004°56'2 2.3
2014-Oct-17 21:32N 43°25' E 004°53'0 0.0
2014-Oct-17 20:32N 43°25' E 004°53'0 0.0
2014-Oct-17 19:32N 43°25' E 004°53'0 0.0
2014-Oct-17 18:29N 43°25' E 004°53'0 0.0
2014-Oct-17 17:26N 43°25' E 004°53'0 0.0
2014-Oct-17 16:32N 43°25' E 004°53'0 0.0
2014-Oct-17 15:32N 43°25' E 004°53'0 0.0
2014-Oct-17 14:32N 43°25' E 004°53'0 0.0
2014-Oct-17 13:32N 43°25' E 004°53'0 0.0
2014-Oct-17 12:32N 43°25' E 004°53'0 0.0
2014-Oct-17 11:32N 43°25' E 004°53'0 0.0
2014-Oct-17 10:29N 43°25' E 004°53'0 0.0
2014-Oct-17 09:32N 43°25' E 004°53'0 0.0
2014-Oct-17 08:32N 43°25' E 004°53'0 0.0
2014-Oct-17 07:32N 43°25' E 004°53'0 0.0
2014-Oct-17 06:32N 43°25' E 004°53'0 0.0
2014-Oct-17 05:32N 43°25' E 004°53'0 0.0
2014-Oct-17 04:32N 43°25' E 004°53'0 0.0
2014-Oct-17 03:32N 43°25' E 004°53'0 0.0
2014-Oct-17 02:32N 43°25' E 004°53'0 0.0
2014-Oct-17 01:32N 43°25' E 004°53'0 0.0
2014-Oct-17 00:32N 43°25' E 004°53'0 0.0
2014-Oct-16 23:32N 43°25' E 004°53'0 0.0
2014-Oct-16 22:32N 43°25' E 004°53'0 0.0
2014-Oct-16 21:32N 43°25' E 004°53'0 0.0
2014-Oct-16 20:32N 43°25' E 004°53'0 0.0
2014-Oct-16 19:32N 43°25' E 004°53'0 0.0
2014-Oct-16 18:32N 43°25' E 004°53'0 0.0
2014-Oct-16 17:32N 43°25' E 004°53'0 0.0
2014-Oct-16 16:32N 43°25' E 004°53'0 0.0
2014-Oct-16 15:32N 43°25' E 004°53'0 0.3
2014-Oct-16 14:33N 43°24' E 004°54'3 2.5
2014-Oct-16 13:33N 43°24' E 004°57'0 0.0
2014-Oct-16 12:33N 43°24' E 004°57'0 0.0
2014-Oct-16 11:33N 43°24' E 004°57'0 0.0
2014-Oct-16 10:33N 43°24' E 004°57'0 0.0
2014-Oct-16 09:33N 43°24' E 004°57'0 0.0
2014-Oct-16 08:33N 43°24' E 004°57'0 0.0
2014-Oct-16 07:33N 43°24' E 004°57'0 0.0
2014-Oct-16 06:33N 43°24' E 004°57'0 0.0
2014-Oct-16 05:33N 43°24' E 004°57'0 0.0
2014-Oct-16 04:33N 43°24' E 004°57'0 0.0
2014-Oct-16 03:33N 43°24' E 004°57'0 0.0
2014-Oct-16 02:33N 43°24' E 004°57'0 0.0
2014-Oct-16 01:33N 43°24' E 004°57'0 0.0
2014-Oct-16 00:33N 43°24' E 004°57'5 4.6
2014-Oct-15 23:33N 43°19' E 004°59'10 9.6
2014-Oct-15 22:33N 43°10' E 005°01'1212.1
2014-Oct-15 21:33N 43°00' E 004°51'1212.3
2014-Oct-15 20:33N 42°50' E 004°42'2812.4
2014-Oct-15 18:18N 42°27' E 004°20'1213.0
2014-Oct-15 17:22N 42°17' E 004°11'1112.5
2014-Oct-15 16:30N 42°08' E 004°02'1212.6
2014-Oct-15 15:33N 41°58' E 003°53'1312.2
2014-Oct-15 14:28N 41°48' E 003°41'1112.1
2014-Oct-15 13:33N 41°41' E 003°31'1212.2
2014-Oct-15 12:32N 41°32' E 003°19'1311.8
2014-Oct-15 11:24N 41°21' E 003°08'1012.1
2014-Oct-15 10:33N 41°13' E 002°60'1212.2
2014-Oct-15 09:33N 41°03' E 002°50'1212.2
2014-Oct-15 08:33N 40°54' E 002°40'1312.7
2014-Oct-15 07:33N 40°44' E 002°30'1413.6
2014-Oct-15 06:33N 40°33' E 002°19'1212.4
2014-Oct-15 05:33N 40°23' E 002°09'1312.6
2014-Oct-15 04:33N 40°13' E 001°59'1212.5
2014-Oct-15 03:33N 40°03' E 001°49'1212.2
2014-Oct-15 02:33N 39°54' E 001°39'1212.3
2014-Oct-15 01:33N 39°44' E 001°30'1312.0
2014-Oct-15 00:26N 39°33' E 001°19'13111.8
2014-Oct-14 13:17N 37°46' W 000°19'912.2
2014-Oct-14 12:33N 37°39' W 000°26'1212.0
2014-Oct-14 11:33N 37°29' W 000°35'1212.2
2014-Oct-14 10:33N 37°19' W 000°44'1412.6
2014-Oct-14 09:28N 37°08' W 000°54'  
Track history (hours):
 
Tides and Currents Weather Stations Pressure Air Temp Water Temp Dewpoint Dewpoint Depression Visibility Wind Speed Wind Dir Waves Ship Positions

Dominia

Last reported at 2014-Oct-24 06:32 UTC. Time now 2014-Oct-24 07:10 UTC.
Position N 44°25' E 008°50'.

Length 176 m; draft 7.5 m.

Type: Ship (hazmat cat A). MMSI: 247273400.

Date/timePositionNaut miles runAvg speedWind from/ knotsBaromVisibWave heightAir tempDewpointWater temp
2014-Oct-24 06:32N 44°25' E 008°50'4 4.3
2014-Oct-24 05:33N 44°22' E 008°47'8 8.5
2014-Oct-24 04:33N 44°14' E 008°50'1 0.6
2014-Oct-24 03:31N 44°13' E 008°50'1 1.0
2014-Oct-24 02:31N 44°14' E 008°50'1 1.1
2014-Oct-24 01:31N 44°15' E 008°49'1 1.1
2014-Oct-24 00:31N 44°16' E 008°49'1 0.7
2014-Oct-23 23:31N 44°17' E 008°49'1 0.7
2014-Oct-23 22:31N 44°18' E 008°49'0 0.4
2014-Oct-23 21:31N 44°18' E 008°48'3 3.3
2014-Oct-23 20:33N 44°15' E 008°47'7 7.2
2014-Oct-23 19:33N 44°08' E 008°44'0 0.2
2014-Oct-23 18:32N 44°08' E 008°44'1 0.8
2014-Oct-23 17:32N 44°09' E 008°45'1 0.7
2014-Oct-23 16:32N 44°09' E 008°45'1 0.7
2014-Oct-23 15:29N 44°10' E 008°46'1 0.7
2014-Oct-23 14:32N 44°11' E 008°46'1 0.9
2014-Oct-23 13:32N 44°12' E 008°46'1 1.0
2014-Oct-23 12:32N 44°13' E 008°45'1 1.1
2014-Oct-23 11:32N 44°14' E 008°45'1 0.9
2014-Oct-23 10:29N 44°15' E 008°45'1 0.9
2014-Oct-23 09:29N 44°15' E 008°44'1 0.8
2014-Oct-23 08:32N 44°16' E 008°44'5 5.0
2014-Oct-23 07:33N 44°15' E 008°51'7 7.5
2014-Oct-23 06:34N 44°12' E 009°00'1 1.1
2014-Oct-23 05:31N 44°11' E 009°01'1 1.3
2014-Oct-23 04:31N 44°11' E 008°59'1 1.3
2014-Oct-23 03:31N 44°11' E 008°57'1 1.2
2014-Oct-23 02:28N 44°11' E 008°56'1 0.9
2014-Oct-23 01:31N 44°12' E 008°55'1 0.8
2014-Oct-23 00:31N 44°12' E 008°54'1 0.7
2014-Oct-22 23:28N 44°12' E 008°53'1 0.8
2014-Oct-22 22:31N 44°13' E 008°52'1 1.0
2014-Oct-22 21:31N 44°14' E 008°52'1 0.9
2014-Oct-22 20:31N 44°14' E 008°51'1 1.2
2014-Oct-22 19:31N 44°15' E 008°50'1 0.9
2014-Oct-22 18:33N 44°16' E 008°49'6 6.2
2014-Oct-22 17:33N 44°10' E 008°46'6 6.3
2014-Oct-22 16:33N 44°05' E 008°41'1 1.2
2014-Oct-22 15:31N 44°05' E 008°40'2 1.9
2014-Oct-22 14:31N 44°07' E 008°40'2 2.0
2014-Oct-22 13:31N 44°08' E 008°41'2 1.8
2014-Oct-22 12:19N 44°11' E 008°42'1 1.6
2014-Oct-22 11:31N 44°12' E 008°42'1 1.3
2014-Oct-22 10:31N 44°13' E 008°43'2 1.5
2014-Oct-22 09:31N 44°14' E 008°44'2 1.6
2014-Oct-22 08:34N 44°16' E 008°45'6 5.7
2014-Oct-22 07:33N 44°10' E 008°49'8 7.9
2014-Oct-22 06:33N 44°09' E 008°59'4 3.7
2014-Oct-22 05:32N 44°08' E 009°04'2 1.8
2014-Oct-22 04:32N 44°08' E 009°02'2 1.9
2014-Oct-22 03:29N 44°09' E 008°59'2 2.3
2014-Oct-22 02:32N 44°10' E 008°57'2 1.8
2014-Oct-22 01:32N 44°12' E 008°55'1 1.0
2014-Oct-22 00:32N 44°12' E 008°54'1 0.5
2014-Oct-21 23:32N 44°12' E 008°53'0 0.2
2014-Oct-21 22:32N 44°12' E 008°53'5 4.7
2014-Oct-21 21:33N 44°14' E 008°47'2 1.7
2014-Oct-21 20:28N 44°15' E 008°45'1 0.8
2014-Oct-21 19:31N 44°15' E 008°46'1 0.9
2014-Oct-21 18:28N 44°14' E 008°47'1 0.8
2014-Oct-21 17:31N 44°13' E 008°47'1 0.8
2014-Oct-21 16:31N 44°12' E 008°48'1 0.8
2014-Oct-21 15:31N 44°12' E 008°48'1 0.8
2014-Oct-21 14:33N 44°11' E 008°47'7 7.0
2014-Oct-21 13:33N 44°12' E 008°38'2 1.1
2014-Oct-21 11:32N 44°12' E 008°41'1 1.0
2014-Oct-21 10:32N 44°12' E 008°42'1 0.9
2014-Oct-21 09:20N 44°12' E 008°44'1 0.8
2014-Oct-21 08:32N 44°12' E 008°44'1 0.8
2014-Oct-21 07:26N 44°11' E 008°45'3 3.6
2014-Oct-21 06:33N 44°14' E 008°48'10 9.8
2014-Oct-21 05:33N 44°23' E 008°51'0 0.1
2014-Oct-21 04:30N 44°23' E 008°51'0 0.0
2014-Oct-21 03:33N 44°23' E 008°51'0 0.0
2014-Oct-21 02:33N 44°23' E 008°51'0 0.0
2014-Oct-21 01:33N 44°23' E 008°51'0 0.0
2014-Oct-21 00:33N 44°23' E 008°51'0 0.0
2014-Oct-20 23:33N 44°24' E 008°51'0 0.1
2014-Oct-20 22:33N 44°24' E 008°51'0 0.0
2014-Oct-20 21:30N 44°23' E 008°51'0 0.1
2014-Oct-20 20:33N 44°23' E 008°51'0 0.1
2014-Oct-20 19:33N 44°23' E 008°51'0 0.0
2014-Oct-20 18:33N 44°23' E 008°51'0 0.0
2014-Oct-20 17:33N 44°23' E 008°51'0 0.0
2014-Oct-20 16:33N 44°23' E 008°51'0 0.0
2014-Oct-20 15:33N 44°24' E 008°51'0 0.0
2014-Oct-20 14:33N 44°23' E 008°51'0 0.0
2014-Oct-20 13:33N 44°23' E 008°51'0 0.0
2014-Oct-20 12:33N 44°23' E 008°51'0 0.0
2014-Oct-20 11:33N 44°23' E 008°51'0 0.0
2014-Oct-20 10:33N 44°23' E 008°51'0 0.1
2014-Oct-20 09:33N 44°23' E 008°51'0 0.1
2014-Oct-20 08:33N 44°23' E 008°51'0 0.0
2014-Oct-20 07:30N 44°23' E 008°51'0 0.0
2014-Oct-20 06:33N 44°23' E 008°51'0 0.0
2014-Oct-20 05:33N 44°23' E 008°51'0 0.0
2014-Oct-20 04:33N 44°23' E 008°51'0 0.0
2014-Oct-20 03:33N 44°23' E 008°51'0 0.0
2014-Oct-20 02:33N 44°23' E 008°51'0 0.0
2014-Oct-20 01:33N 44°23' E 008°51'0 0.0
2014-Oct-20 00:33N 44°23' E 008°51'0 0.0
2014-Oct-19 23:33N 44°23' E 008°51'0 0.0
2014-Oct-19 22:33N 44°23' E 008°51'0 0.0
2014-Oct-19 21:33N 44°23' E 008°51'0 0.0
2014-Oct-19 20:33N 44°23' E 008°51'0 0.0
2014-Oct-19 19:33N 44°23' E 008°51'0 0.0
2014-Oct-19 18:24N 44°23' E 008°51'0 0.1
2014-Oct-19 17:33N 44°23' E 008°51'0 0.0
2014-Oct-19 16:30N 44°23' E 008°51'0 0.0
2014-Oct-19 15:33N 44°23' E 008°51'0 0.0
2014-Oct-19 14:30N 44°23' E 008°51'0 0.0
2014-Oct-19 13:27N 44°23' E 008°51'0 0.0
2014-Oct-19 12:33N 44°23' E 008°51'0 0.0
2014-Oct-19 11:30N 44°23' E 008°51'0 0.1
2014-Oct-19 10:27N 44°23' E 008°51'0 0.1
2014-Oct-19 09:33N 44°23' E 008°51'0 0.1
2014-Oct-19 08:33N 44°23' E 008°51'0 0.0
2014-Oct-19 07:33N 44°23' E 008°51'0 0.1
2014-Oct-19 06:33N 44°23' E 008°51'4 4.4
2014-Oct-19 05:33N 44°19' E 008°52'1010.1
2014-Oct-19 04:33N 44°09' E 008°56'0 0.1
2014-Oct-19 03:33N 44°09' E 008°56'0 0.2
2014-Oct-19 02:33N 44°09' E 008°56'0 0.2
2014-Oct-19 01:33N 44°09' E 008°57'0 0.1
2014-Oct-19 00:33N 44°09' E 008°57'0 0.1
2014-Oct-18 23:33N 44°09' E 008°57'0 0.2
2014-Oct-18 22:33N 44°09' E 008°57'0 0.2
2014-Oct-18 21:33N 44°09' E 008°56'0 0.3
2014-Oct-18 20:30N 44°09' E 008°56'0 0.4
2014-Oct-18 19:33N 44°09' E 008°56'0 0.3
2014-Oct-18 18:30N 44°08' E 008°56'2 2.1
2014-Oct-18 17:33N 44°10' E 008°54'10 9.9
2014-Oct-18 16:33N 44°19' E 008°50'1010.4
2014-Oct-18 15:33N 44°11' E 008°41'1312.7
2014-Oct-18 14:33N 44°01' E 008°30'1312.6
2014-Oct-18 13:33N 43°51' E 008°19'1312.3
2014-Oct-18 12:30N 43°42' E 008°06'1212.3
2014-Oct-18 11:32N 43°35' E 007°53'2912.6
2014-Oct-18 09:14N 43°17' E 007°21'912.5
2014-Oct-18 08:33N 43°12' E 007°12'1212.4
2014-Oct-18 07:33N 43°04' E 006°59'1212.3
2014-Oct-18 06:33N 42°57' E 006°45'1211.9
2014-Oct-18 05:33N 42°50' E 006°32'1411.9
2014-Oct-18 04:24N 42°48' E 006°13'1311.3
2014-Oct-18 03:13N 42°51' E 005°56'912.0
2014-Oct-18 02:31N 42°55' E 005°45'1512.6
2014-Oct-18 01:20N 43°01' E 005°27'1212.7
2014-Oct-18 00:23N 43°06' E 005°12'1011.8
2014-Oct-17 23:33N 43°12' E 005°01'1212.0
2014-Oct-17 22:33N 43°23' E 004°56'2 2.3
2014-Oct-17 21:32N 43°25' E 004°53'0 0.0
2014-Oct-17 20:32N 43°25' E 004°53'0 0.0
2014-Oct-17 19:32N 43°25' E 004°53'0 0.0
2014-Oct-17 18:29N 43°25' E 004°53'0 0.0
2014-Oct-17 17:26N 43°25' E 004°53'0 0.0
2014-Oct-17 16:32N 43°25' E 004°53'0 0.0
2014-Oct-17 15:32N 43°25' E 004°53'0 0.0
2014-Oct-17 14:32N 43°25' E 004°53'0 0.0
2014-Oct-17 13:32N 43°25' E 004°53'0 0.0
2014-Oct-17 12:32N 43°25' E 004°53'0 0.0
2014-Oct-17 11:32N 43°25' E 004°53'0 0.0
2014-Oct-17 10:29N 43°25' E 004°53'0 0.0
2014-Oct-17 09:32N 43°25' E 004°53'0 0.0
2014-Oct-17 08:32N 43°25' E 004°53'0 0.0
2014-Oct-17 07:32N 43°25' E 004°53'0 0.0
2014-Oct-17 06:32N 43°25' E 004°53'0 0.0
2014-Oct-17 05:32N 43°25' E 004°53'0 0.0
2014-Oct-17 04:32N 43°25' E 004°53'0 0.0
2014-Oct-17 03:32N 43°25' E 004°53'0 0.0
2014-Oct-17 02:32N 43°25' E 004°53'0 0.0
2014-Oct-17 01:32N 43°25' E 004°53'0 0.0
2014-Oct-17 00:32N 43°25' E 004°53'0 0.0
2014-Oct-16 23:32N 43°25' E 004°53'0 0.0
2014-Oct-16 22:32N 43°25' E 004°53'0 0.0
2014-Oct-16 21:32N 43°25' E 004°53'0 0.0
2014-Oct-16 20:32N 43°25' E 004°53'0 0.0
2014-Oct-16 19:32N 43°25' E 004°53'0 0.0
2014-Oct-16 18:32N 43°25' E 004°53'0 0.0
2014-Oct-16 17:32N 43°25' E 004°53'0 0.0
2014-Oct-16 16:32N 43°25' E 004°53'0 0.0
2014-Oct-16 15:32N 43°25' E 004°53'0 0.3
2014-Oct-16 14:33N 43°24' E 004°54'3 2.5
2014-Oct-16 13:33N 43°24' E 004°57'0 0.0
2014-Oct-16 12:33N 43°24' E 004°57'0 0.0
2014-Oct-16 11:33N 43°24' E 004°57'0 0.0
2014-Oct-16 10:33N 43°24' E 004°57'0 0.0
2014-Oct-16 09:33N 43°24' E 004°57'0 0.0
2014-Oct-16 08:33N 43°24' E 004°57'0 0.0
2014-Oct-16 07:33N 43°24' E 004°57'0 0.0
2014-Oct-16 06:33N 43°24' E 004°57'0 0.0
2014-Oct-16 05:33N 43°24' E 004°57'0 0.0
2014-Oct-16 04:33N 43°24' E 004°57'0 0.0
2014-Oct-16 03:33N 43°24' E 004°57'0 0.0
2014-Oct-16 02:33N 43°24' E 004°57'0 0.0
2014-Oct-16 01:33N 43°24' E 004°57'0 0.0
2014-Oct-16 00:33N 43°24' E 004°57'5 4.6
2014-Oct-15 23:33N 43°19' E 004°59'10 9.6
2014-Oct-15 22:33N 43°10' E 005°01'1212.1
2014-Oct-15 21:33N 43°00' E 004°51'1212.3
2014-Oct-15 20:33N 42°50' E 004°42'2812.4
2014-Oct-15 18:18N 42°27' E 004°20'1213.0
2014-Oct-15 17:22N 42°17' E 004°11'1112.5
2014-Oct-15 16:30N 42°08' E 004°02'1212.6
2014-Oct-15 15:33N 41°58' E 003°53'1312.2
2014-Oct-15 14:28N 41°48' E 003°41'1112.1
2014-Oct-15 13:33N 41°41' E 003°31'1212.2
2014-Oct-15 12:32N 41°32' E 003°19'1311.8
2014-Oct-15 11:24N 41°21' E 003°08'1012.1
2014-Oct-15 10:33N 41°13' E 002°60'1212.2
2014-Oct-15 09:33N 41°03' E 002°50'1212.2
2014-Oct-15 08:33N 40°54' E 002°40'1312.7
2014-Oct-15 07:33N 40°44' E 002°30'1413.6
2014-Oct-15 06:33N 40°33' E 002°19'1212.4
2014-Oct-15 05:33N 40°23' E 002°09'1312.6
2014-Oct-15 04:33N 40°13' E 001°59'1212.5
2014-Oct-15 03:33N 40°03' E 001°49'1212.2
2014-Oct-15 02:33N 39°54' E 001°39'1212.3
2014-Oct-15 01:33N 39°44' E 001°30'1312.0
2014-Oct-15 00:26N 39°33' E 001°19'13111.8
2014-Oct-14 13:17N 37°46' W 000°19'912.2
2014-Oct-14 12:33N 37°39' W 000°26'1212.0
2014-Oct-14 11:33N 37°29' W 000°35'1212.2
2014-Oct-14 10:33N 37°19' W 000°44'1412.6
2014-Oct-14 09:28N 37°08' W 000°54'  

Dump ship's entire track history